COSMOS 1900 DEB, 43500

Orbit data source: Space-Track

COSMOS 1900 DEB, 43500 is space debris in LEO originally from a launch on Sat, 12 Dec 1987 UTC launched from the Tyuratam Missile And Space Complex (TTMTR). Debris objects in space refer to the collection of defunct objects orbiting the Earth. Examples of debris include non-operational satellites, rocket bodies, and fragments generated from explosions, collisions, or faulty payload assembly.

Loading next visibility...
Identifier
43500, 1987-101E
Orbit
LEO
Country
Flag of CISCIS
Related business
Manufacturer
Unknown
Mission
Spacecraft
Bus & Motor
Unknown
Mass
Unknown
Launch date (UTC)
1987-12-12 (39 years ago)
Launch vehicle
Unknown
Launch site
Tyuratam Missile And Space Complex (TTMTR)
Object type
Payload
Rocket body
Debris
Shape & HBR
Unknown shape, 0.1 m
Radar Cross Section
Small (<0.1 m²)

Expand to show TLE details & history
Last TLE update: 6 days ago

TLE from 6 days ago
0 COSMOS 1900 DEB
1 43500U 87101E   26167.76425249  .00000520  00000-0  12807-3 0  9998
2 43500  66.0874 342.9486 0022846  79.8546 297.6345 14.60668008668513
Epoch: 2026-06-16T18:20Z
TLE epoch observation values (Epoch: 2026-06-16T18:20:31.415Z)
Latitude
15.73051°
Longitude
169.92162°
Altitude
684.961 km
Speed
7.52 km/s
True Right ascension
23h 20m 20s
True Declination
15° 38' 24"
Sunlit
Object was in daylight at epoch
Visualization orbit readout
Latitude
Unknown
Longitude
Unknown
Altitude
Unknown
Speed
Unknown
Apparent Right ascension
Unknown
Apparent Declination
Unknown
Sunlit
N/A
Visualization observer readout
Local Sidereal Time
21:34:26
Azimuth
Unknown
Elevation
Unknown
Doppler factor
Unknown
Orbital elements
Apogee altitude
705.589 km
Perigee altitude
673.296 km
Semi-major axis
7,067.58 km
Eccentricity
0.00228
Inclination
66.0874°
RAAN
342.9486°
Arg. of periapsis
79.8546°
True anomaly
297.40226°
Mean anomaly
297.6345°
Eccentric anomaly
297.51841°
Mean motion
3.65289 °/min
Orbital period
98.55 mins
BSTAR
0.00012807
Loading maneuver chart data...
Computing Atmospheric mass density...
Loading historical data...
Loading historical data...
Loading historical data...
Loading historical data...
Loading historical data...
Loading historical data...
Loading historical data...

Documentation

Showing up to 5 results
|